Flag for Switzerland Weather past 2 weeks in Altdorf, Uri, Switzerland

Now
72 °F

Mild.


Feels Like: 75 °F
Forecast: 67 / 92 °F
Wind: 2 mph from South

Location: Altdorf

Current Time: Jul 5, 2015 at 6:59:25 AM

Latest Report: Jul 5, 2015 at 4:00 AM


Visibility: N/A

Pressure: 30.07 "Hg

Humidity: 65%

Dew point: 59 °F

Location of AltdorfLocation

Historic Weather in Altdorf — Graph

°F

Altdorf temperature yesterday

Maximum temperature yesterday: 90 °F (at 5:00 PM)
Minimum temperature yesterday: 68 °F (at 7:00 AM)
Average temperature yesterday: 82 °F

Past Weeks' High & Low Weather Summary

 TemperatureHumidityPressure
High90 °F (Jul 4, 5:00 PM)95% (Jun 22, 6:00 AM)30.24 "Hg (Jun 22, 6:00 AM)
Low50 °F (Jun 24, 8:00 AM)38% (Jul 3, 8:00 PM)29.73 "Hg (Jun 22, 11:00 PM)
Average67 °F70%30.09 "Hg
* Reported Jun 20 4:00 AM — Jul 5 4:00 AM, Altdorf, Weather by CustomWeather, © 2015

Note: Actual official high and low records may vary slightly from our data, if they occured in-between our weather recording intervals... More about our weather records

Advertising

Altdorf weather history for previous 24 hours

 ConditionsComfort  
Time TempWeatherWind HumidityBarometerVisibility
4:00 AM
Sun, Jul 5
72 °FMild.2 mph65%30.07 "HgN/A
3:00 AM71 °FMild.2 mph69%30.08 "HgN/A
2:00 AM69 °FPassing clouds.2 mph80%30.11 "Hg19 mi
1:00 AM71 °FMild.1 mph73%30.10 "HgN/A
12:00 AM75 °FMild.1 mph62%30.09 "HgN/A
10:00 PM
Sat, Jul 4
78 °FWarm.2 mph60%30.09 "HgN/A
9:00 PM82 °FWarm.5 mph52%30.07 "HgN/A
8:00 PM82 °FPartly sunny.1 mph61%30.06 "Hg19 mi
7:00 PM88 °FWarm.1 mph48%30.04 "HgN/A
6:00 PM90 °FHot.2 mph45%30.04 "HgN/A
5:00 PM90 °FPartly sunny.7 mph40%30.05 "Hg19 mi
4:00 PM90 °FHot.8 mph39%30.06 "HgN/A
3:00 PM89 °FHot.7 mph44%30.07 "HgN/A
2:00 PM87 °FPartly sunny.5 mph50%30.10 "Hg19 mi
1:00 PM84 °FWarm.5 mph50%30.12 "HgN/A
12:00 PM82 °FWarm.3 mph57%30.14 "HgN/A
11:00 AM80 °FWarm.6 mph56%30.15 "HgN/A
10:00 AM81 °FWarm.No wind55%30.16 "HgN/A
9:00 AM77 °FMild.No wind57%30.17 "HgN/A
8:00 AM72 °FSunny.2 mph62%30.18 "Hg19 mi
7:00 AM68 °FMild.2 mph72%30.18 "HgN/A
6:00 AM73 °FMild.No wind55%30.16 "HgN/A
Weather by CustomWeather, © 2015

See weather overviewHow to use our weather pages